Location: Tamazert
(32.6352°N, 5.2072°W)
Time: 15:39:18
(UTC+00:00)

Cosmos 1892 - Pass Details

Date: 22 May 2022
Orbit: 497 x 517 km, 82.5° (Epoch: 28 June)

Event Time Altitude Azimuth Distance (km) Brightness Sun altitude
Exits shadow 04:44:16 - 202° (SSW) 2,312 5.5 -7.2°
Reaches altitude 10° 04:45:44 10° 208° (SSW) 1,730 4.9 -6.9°
Maximum altitude 04:49:19 41° 279° (W) 756 3.2 -6.2°
Drops below altitude 10° 04:52:55 10° 350° (N) 1,731 5.6 -5.6°
Sets 04:55:08 0° 358° (N) 2,617 6.7 -5.2°
